#�ϑ�����,���ϕ���,���ϕ���,�ő啗��,�ő啗����������,�ő�u�ԕ���,�ő�u�ԕ�����������
#(�N����),(m/s)   ,(16����),(m/s)   ,(16����)        ,(m/s)       ,(16����)            
2012/7/18 0:01,1.9,2,2,3,2,3
2012/7/18 0:02,1.8,2,1.9,3,1.6,3
2012/7/18 0:03,1.8,2,1.8,3,2.1,3
2012/7/18 0:04,1.8,2,1.8,3,2.7,3
2012/7/18 0:05,1.8,2,1.8,2,2.6,2
2012/7/18 0:06,1.7,2,1.8,2,2.2,2
2012/7/18 0:07,1.7,2,1.7,2,2.6,3
2012/7/18 0:08,1.7,2,1.7,2,2,3
2012/7/18 0:09,1.6,2,1.7,2,2.7,3
2012/7/18 0:10,1.6,2,1.6,2,2.5,2
2012/7/18 0:11,1.6,2,1.6,2,3,3
2012/7/18 0:12,1.7,2,1.7,2,2.5,3
2012/7/18 0:13,1.7,2,1.7,2,3.2,3
2012/7/18 0:14,1.7,2,1.7,2,2.5,3
2012/7/18 0:15,1.7,2,1.7,2,2.4,2
2012/7/18 0:16,1.7,2,1.7,2,2.6,2
2012/7/18 0:17,1.7,2,1.7,2,2.5,2
2012/7/18 0:18,1.8,2,1.8,2,2.7,3
2012/7/18 0:19,1.8,2,1.8,2,3,4
2012/7/18 0:20,1.9,2,1.9,2,3.8,3
2012/7/18 0:21,1.9,2,1.9,2,3.2,2
2012/7/18 0:22,1.9,2,1.9,2,3.1,2
2012/7/18 0:23,2,2,2,2,2.9,3
2012/7/18 0:24,2,2,2,2,3.1,2
2012/7/18 0:25,2.1,2,2.1,2,3.8,2
2012/7/18 0:26,2.2,2,2.2,2,3.9,3
2012/7/18 0:27,2.2,2,2.2,2,3.7,4
2012/7/18 0:28,2.3,2,2.3,3,4.4,3
2012/7/18 0:29,2.4,3,2.4,2,3.5,3
2012/7/18 0:30,2.4,3,2.4,2,3.6,4
2012/7/18 0:31,2.4,3,2.4,2,3.3,3
2012/7/18 0:32,2.4,3,2.4,2,3.6,4
2012/7/18 0:33,2.4,3,2.5,3,3.8,2
2012/7/18 0:34,2.4,3,2.4,3,2.2,2
2012/7/18 0:35,2.4,3,2.4,3,3.3,3
2012/7/18 0:36,2.3,3,2.4,3,3.2,2
2012/7/18 0:37,2.4,3,2.4,3,3.7,3
2012/7/18 0:38,2.3,3,2.4,3,3.8,3
2012/7/18 0:39,2.2,3,2.3,3,2.6,4
2012/7/18 0:40,2.3,3,2.3,3,3.6,3
2012/7/18 0:41,2.3,3,2.3,3,3.9,3
2012/7/18 0:42,2.4,3,2.4,3,4.9,4
2012/7/18 0:43,2.5,3,2.5,3,4.8,3
2012/7/18 0:44,2.7,3,2.7,3,5.4,3
2012/7/18 0:45,2.9,3,2.9,3,6.3,3
2012/7/18 0:46,3,3,3,3,4.8,3
2012/7/18 0:47,3.1,3,3.1,3,5.6,5
2012/7/18 0:48,3.3,3,3.3,3,5.1,5
2012/7/18 0:49,3.3,3,3.3,3,3.6,3
2012/7/18 0:50,3.3,3,3.3,3,3.9,3
2012/7/18 0:51,3.3,3,3.4,3,5,5
2012/7/18 0:52,3.2,3,3.3,3,3.2,3
2012/7/18 0:53,3,3,3.2,3,2.9,3
2012/7/18 0:54,2.8,3,3,3,2.5,4
2012/7/18 0:55,2.5,3,2.8,3,2.4,4
2012/7/18 0:56,2.3,3,2.5,3,3.2,2
2012/7/18 0:57,2.1,3,2.3,3,2.7,4
2012/7/18 0:58,2.1,3,2.1,3,4.5,2
2012/7/18 0:59,2.1,3,2.1,3,3.6,2
2012/7/18 1:00,2.1,2,2.1,3,4.1,3
2012/7/18 1:01,2.1,2,2.1,3,4.2,3
2012/7/18 1:02,2.3,2,2.3,3,5.2,3
2012/7/18 1:03,2.5,2,2.5,3,5.1,3
2012/7/18 1:04,2.8,3,2.8,3,5,3
2012/7/18 1:05,2.8,3,2.8,3,3.8,4
2012/7/18 1:06,3,3,3,2,5.2,3
2012/7/18 1:07,3.2,3,3.2,3,4.8,3
2012/7/18 1:08,3.2,3,3.2,3,4.9,4
2012/7/18 1:09,3.3,3,3.3,3,5.1,3
2012/7/18 1:10,3.3,3,3.3,3,4.3,4
2012/7/18 1:11,3.4,3,3.4,3,5.1,4
2012/7/18 1:12,3.3,3,3.4,3,4.7,3
2012/7/18 1:13,3.2,3,3.3,3,3.7,2
2012/7/18 1:14,3,3,3.2,3,3.1,3
2012/7/18 1:15,3.1,3,3.1,3,4.1,2
2012/7/18 1:16,3,3,3.1,3,3.5,3
2012/7/18 1:17,2.9,3,3,3,3.7,2
2012/7/18 1:18,2.8,3,2.9,3,4.1,3
2012/7/18 1:19,2.6,3,2.8,3,3,3
2012/7/18 1:20,2.6,3,2.6,3,3.7,3
2012/7/18 1:21,2.5,3,2.6,3,4.2,3
2012/7/18 1:22,2.5,3,2.5,3,4.3,3
2012/7/18 1:23,2.6,2,2.6,3,4.4,3
2012/7/18 1:24,2.6,2,2.6,3,3,3
2012/7/18 1:25,2.4,2,2.6,3,2.5,2
2012/7/18 1:26,2.4,2,2.5,3,3.5,3
2012/7/18 1:27,2.2,2,2.4,3,1.5,5
2012/7/18 1:28,2.2,2,2.3,3,3.5,2
2012/7/18 1:29,2.3,3,2.3,3,4.3,3
2012/7/18 1:30,2.3,3,2.3,3,3.3,3
2012/7/18 1:31,2.2,3,2.3,3,2.9,2
2012/7/18 1:32,2.1,2,2.1,3,4.1,3
2012/7/18 1:33,1.9,2,2.1,2,4.2,3
2012/7/18 1:34,2.1,2,2.1,2,4.4,3
2012/7/18 1:35,2.3,3,2.3,2,4.2,3
2012/7/18 1:36,2.3,3,2.3,2,3.5,3
2012/7/18 1:37,2.5,3,2.5,3,4.4,3
2012/7/18 1:38,2.5,3,2.5,3,4.2,3
2012/7/18 1:39,2.6,2,2.6,2,5.4,3
2012/7/18 1:40,2.6,2,2.6,2,3.2,2
2012/7/18 1:41,2.8,2,2.8,2,5.2,3
2012/7/18 1:42,2.9,3,2.9,3,5.5,3
2012/7/18 1:43,2.9,3,2.9,3,5,3
2012/7/18 1:44,2.9,3,2.9,3,3.5,2
2012/7/18 1:45,2.8,2,2.9,3,4.8,3
2012/7/18 1:46,2.9,2,2.9,3,3.9,3
2012/7/18 1:47,2.7,2,2.9,3,3.5,3
2012/7/18 1:48,2.7,2,2.8,3,3.1,3
2012/7/18 1:49,2.7,2,2.8,3,4.9,3
2012/7/18 1:50,2.9,2,2.9,3,5.7,16
2012/7/18 1:51,2.8,2,2.9,3,4.2,2
2012/7/18 1:52,2.8,2,2.8,3,5.5,3
2012/7/18 1:53,2.8,2,2.8,3,4.4,2
2012/7/18 1:54,2.9,2,2.9,3,4.4,3
2012/7/18 1:55,2.9,2,2.9,2,5.7,2
2012/7/18 1:56,2.9,2,2.9,2,5.1,3
2012/7/18 1:57,3,2,3,2,4.3,4
2012/7/18 1:58,3.1,2,3.1,2,4.2,3
2012/7/18 1:59,3,2,3.1,2,3.8,3
2012/7/18 2:00,2.9,2,3,2,3,1
2012/7/18 2:01,2.9,2,2.9,2,5.6,2
2012/7/18 2:02,2.9,2,2.9,2,5.8,3
2012/7/18 2:03,2.9,2,3,2,5.8,3
2012/7/18 2:04,2.9,2,3,2,4.3,3
2012/7/18 2:05,2.8,2,2.9,2,3.8,1
2012/7/18 2:06,2.7,2,2.8,2,4.2,3
2012/7/18 2:07,2.6,2,2.7,2,3.5,3
2012/7/18 2:08,2.5,2,2.6,2,3.7,3
2012/7/18 2:09,2.5,2,2.6,2,4.2,2
2012/7/18 2:10,2.5,2,2.5,2,3.5,2
2012/7/18 2:11,2.4,2,2.5,2,3.8,2
2012/7/18 2:12,2.3,2,2.4,2,4.3,3
2012/7/18 2:13,2.4,2,2.4,2,4.7,3
2012/7/18 2:14,2.4,2,2.4,2,4.1,3
2012/7/18 2:15,2.6,2,2.6,2,4.1,4
2012/7/18 2:16,2.5,2,2.6,2,3.5,4
2012/7/18 2:17,2.4,2,2.5,2,1.8,1
2012/7/18 2:18,2.4,2,2.4,2,2.6,2
2012/7/18 2:19,2.4,2,2.4,2,3,3
2012/7/18 2:20,2.3,2,2.4,2,2.4,3
2012/7/18 2:21,2.3,3,2.3,2,3.2,3
2012/7/18 2:22,2.4,3,2.4,2,5,2
2012/7/18 2:23,2.3,3,2.4,2,3.6,4
2012/7/18 2:24,2.1,3,2.3,2,3.6,4
2012/7/18 2:25,2.1,3,2.1,2,3.3,4
2012/7/18 2:26,2.1,3,2.1,2,3.6,3
2012/7/18 2:27,2.3,3,2.3,2,3.3,3
2012/7/18 2:28,2.3,3,2.3,2,3.3,3
2012/7/18 2:29,2.3,3,2.3,2,3,3
2012/7/18 2:30,2.4,3,2.4,3,4.2,4
2012/7/18 2:31,2.3,3,2.4,3,3.8,4
2012/7/18 2:32,2.3,3,2.3,3,3.7,3
2012/7/18 2:33,2.2,3,2.2,3,3.1,3
2012/7/18 2:34,2.2,3,2.2,3,3.1,4
2012/7/18 2:35,2.2,3,2.2,3,4.2,3
2012/7/18 2:36,2.2,3,2.2,3,3.7,3
2012/7/18 2:37,2.1,3,2.2,3,2.7,2
2012/7/18 2:38,2,3,2.1,3,1.8,3
2012/7/18 2:39,1.9,3,2,3,2.2,3
2012/7/18 2:40,1.9,3,1.9,3,2.6,2
2012/7/18 2:41,1.8,3,1.9,3,2.6,3
2012/7/18 2:42,1.7,2,1.8,3,1.9,2
2012/7/18 2:43,1.8,3,1.8,3,4.1,3
2012/7/18 2:44,1.8,3,1.8,3,3.5,3
2012/7/18 2:45,1.8,3,1.8,3,3.1,3
2012/7/18 2:46,1.7,3,1.8,3,3.2,3
2012/7/18 2:47,1.9,3,1.9,3,3.1,3
2012/7/18 2:48,2,3,2,3,3.1,3
2012/7/18 2:49,2,3,2,3,2.9,3
2012/7/18 2:50,2.1,3,2.1,3,3.5,3
2012/7/18 2:51,2.2,3,2.2,3,3.1,4
2012/7/18 2:52,2.2,3,2.2,3,2.7,3
2012/7/18 2:53,2.2,3,2.2,3,2.2,3
2012/7/18 2:54,2.1,3,2.2,3,1.9,3
2012/7/18 2:55,2,3,2.1,3,2,3
2012/7/18 2:56,1.9,3,2,3,2.9,4
2012/7/18 2:57,1.9,3,1.9,3,2,2
2012/7/18 2:58,1.8,3,1.9,3,2.6,4
2012/7/18 2:59,1.8,3,1.9,3,2.6,3
2012/7/18 3:00,1.7,3,1.8,3,1.9,4
2012/7/18 3:01,1.6,3,1.7,3,1.9,3
2012/7/18 3:02,1.6,3,1.6,3,2.6,3
2012/7/18 3:03,1.6,3,1.6,3,2.7,3
2012/7/18 3:04,1.7,3,1.7,3,3.3,3
2012/7/18 3:05,1.8,3,1.8,3,3.7,4
2012/7/18 3:06,1.8,3,1.8,3,3,4
2012/7/18 3:07,1.9,3,1.9,3,3.2,4
2012/7/18 3:08,1.9,3,1.9,3,2.1,3
2012/7/18 3:09,1.8,3,1.8,3,1.8,3
2012/7/18 3:10,1.9,3,1.9,3,3.1,2
2012/7/18 3:11,2,3,2,3,3.7,3
2012/7/18 3:12,2,3,2,3,2.9,3
2012/7/18 3:13,2,3,2,3,2.6,3
2012/7/18 3:14,2,3,2,3,2.5,2
2012/7/18 3:15,1.9,3,2,3,3.2,2
2012/7/18 3:16,1.8,3,1.9,3,2.2,3
2012/7/18 3:17,1.8,3,1.8,3,2,2
2012/7/18 3:18,1.8,3,1.8,3,2,4
2012/7/18 3:19,1.8,3,1.8,3,1.9,2
2012/7/18 3:20,1.6,3,1.8,3,1.6,1
2012/7/18 3:21,1.5,3,1.6,3,2.1,2
2012/7/18 3:22,1.5,3,1.5,3,3.1,4
2012/7/18 3:23,1.5,3,1.5,3,2.9,3
2012/7/18 3:24,1.5,2,1.5,3,3,2
2012/7/18 3:25,1.6,2,1.6,3,3.2,3
2012/7/18 3:26,1.6,2,1.6,3,2.7,3
2012/7/18 3:27,1.6,2,1.6,3,2.1,2
2012/7/18 3:28,1.6,2,1.6,3,1.8,3
2012/7/18 3:29,1.7,2,1.7,3,2.9,3
2012/7/18 3:30,1.7,2,1.7,2,2.2,3
2012/7/18 3:31,1.8,3,1.8,2,3.6,4
2012/7/18 3:32,1.9,3,1.9,3,3.2,4
2012/7/18 3:33,1.9,3,1.9,3,2.9,3
2012/7/18 3:34,1.9,3,1.9,3,2.5,3
2012/7/18 3:35,1.8,3,1.9,3,3,1
2012/7/18 3:36,1.8,3,1.8,3,3.2,2
2012/7/18 3:37,1.9,3,1.9,3,3.2,4
2012/7/18 3:38,1.9,3,2,3,2.6,4
2012/7/18 3:39,1.9,3,1.9,3,3.2,4
2012/7/18 3:40,1.9,3,1.9,3,3.2,3
2012/7/18 3:41,2,3,2,3,3.2,3
2012/7/18 3:42,2,3,2,3,2.7,3
2012/7/18 3:43,1.9,3,2,3,2.5,3
2012/7/18 3:44,1.9,3,1.9,3,2.1,3
2012/7/18 3:45,1.9,3,1.9,3,1.4,3
2012/7/18 3:46,1.8,3,1.9,3,1.8,3
2012/7/18 3:47,1.7,3,1.8,3,1.6,3
2012/7/18 3:48,1.7,3,1.7,3,2.4,3
2012/7/18 3:49,1.7,3,1.8,3,3.1,2
2012/7/18 3:50,1.7,3,1.7,3,3.1,3
2012/7/18 3:51,1.6,2,1.7,3,2.2,3
2012/7/18 3:52,1.6,2,1.6,3,3.1,3
2012/7/18 3:53,1.6,3,1.6,3,2.7,4
2012/7/18 3:54,1.7,3,1.7,3,2.5,5
2012/7/18 3:55,1.8,3,1.8,3,2.9,3
2012/7/18 3:56,1.8,3,1.8,3,2,3
2012/7/18 3:57,1.9,3,1.9,3,3,4
2012/7/18 3:58,2,3,2,3,3,4
2012/7/18 3:59,1.9,3,2,3,2.5,2
2012/7/18 4:00,1.8,3,1.9,3,2.2,3
2012/7/18 4:01,1.8,3,1.8,3,1.5,2
2012/7/18 4:02,1.6,3,1.8,3,1.6,2
2012/7/18 4:03,1.6,3,1.6,3,2.5,2
2012/7/18 4:04,1.6,2,1.6,3,2.7,4
2012/7/18 4:05,1.6,2,1.6,3,2.6,2
2012/7/18 4:06,1.6,2,1.6,3,3.2,3
2012/7/18 4:07,1.7,2,1.7,3,3.2,3
2012/7/18 4:08,1.6,2,1.7,3,2.4,3
2012/7/18 4:09,1.6,2,1.6,3,1.5,2
2012/7/18 4:10,1.6,2,1.6,3,2.4,3
2012/7/18 4:11,1.7,2,1.7,3,2.9,3
2012/7/18 4:12,1.8,3,1.8,3,2.5,3
2012/7/18 4:13,1.8,2,1.8,3,2.4,2
2012/7/18 4:14,1.7,2,1.7,3,2.5,3
2012/7/18 4:15,1.7,2,1.7,3,2.5,3
2012/7/18 4:16,1.8,2,1.8,3,3.1,3
2012/7/18 4:17,1.7,2,1.8,3,3.5,1
2012/7/18 4:18,1.8,2,1.8,3,3.7,3
2012/7/18 4:19,1.9,2,1.9,2,3.9,2
2012/7/18 4:20,1.9,2,1.9,2,3.6,3
2012/7/18 4:21,2,3,2,3,3,3
2012/7/18 4:22,2.1,3,2.1,3,3.6,3
2012/7/18 4:23,2.1,3,2.1,3,3,3
2012/7/18 4:24,2.1,3,2.1,3,2.1,3
2012/7/18 4:25,2,3,2.1,3,2.4,3
2012/7/18 4:26,2,2,2,3,2.7,3
2012/7/18 4:27,2,2,2,3,3.9,3
2012/7/18 4:28,2.1,3,2.1,3,4.2,2
2012/7/18 4:29,2.2,3,2.2,3,3.5,3
2012/7/18 4:30,2.1,3,2.2,3,2.6,3
2012/7/18 4:31,2.1,3,2.2,3,2.7,2
2012/7/18 4:32,2.1,3,2.1,3,3.2,3
2012/7/18 4:33,2.1,2,2.1,3,3.2,3
2012/7/18 4:34,2.1,3,2.1,3,2.2,3
2012/7/18 4:35,2.2,3,2.2,3,2.7,3
2012/7/18 4:36,2.3,3,2.3,3,4.2,2
2012/7/18 4:37,2.3,3,2.3,3,3.8,3
2012/7/18 4:38,2.2,3,2.3,3,2.7,3
2012/7/18 4:39,2.1,3,2.2,3,3.1,3
2012/7/18 4:40,2.2,3,2.2,3,3.2,3
2012/7/18 4:41,2.2,3,2.2,3,3.1,3
2012/7/18 4:42,2.1,3,2.2,3,3.2,3
2012/7/18 4:43,2.3,3,2.3,3,4.4,3
2012/7/18 4:44,2.4,3,2.4,3,4.2,3
2012/7/18 4:45,2.5,3,2.5,3,3.2,3
2012/7/18 4:46,2.4,3,2.5,3,3.3,3
2012/7/18 4:47,2.4,3,2.4,3,3.3,3
2012/7/18 4:48,2.4,3,2.4,3,3.2,3
2012/7/18 4:49,2.3,3,2.4,3,2.4,3
2012/7/18 4:50,2.2,3,2.3,3,2.9,3
2012/7/18 4:51,2.2,3,2.2,3,3.6,1
2012/7/18 4:52,2.4,3,2.4,3,4.1,2
2012/7/18 4:53,2.3,3,2.4,3,3.7,4
2012/7/18 4:54,2.2,3,2.3,3,2.6,3
2012/7/18 4:55,2.1,3,2.2,3,2.5,3
2012/7/18 4:56,2,3,2.1,3,3,2
2012/7/18 4:57,2,2,2,3,3.8,2
2012/7/18 4:58,2.1,2,2.1,3,3.5,3
2012/7/18 4:59,2.2,3,2.2,3,3.6,3
2012/7/18 5:00,2.3,3,2.3,3,3.8,3
2012/7/18 5:01,2.3,3,2.4,3,4.2,4
2012/7/18 5:02,2.2,3,2.3,3,3.1,3
2012/7/18 5:03,2.1,3,2.2,3,3,3
2012/7/18 5:04,2.2,3,2.2,3,3.6,2
2012/7/18 5:05,2.2,3,2.2,3,3.8,2
2012/7/18 5:06,2.3,3,2.3,3,3.2,2
2012/7/18 5:07,2.2,2,2.3,3,3.6,2
2012/7/18 5:08,2.2,2,2.2,3,3.6,2
2012/7/18 5:09,2.3,2,2.3,3,3.9,2
2012/7/18 5:10,2.3,2,2.3,3,3.6,3
2012/7/18 5:11,2.3,2,2.3,3,2.9,3
2012/7/18 5:12,2.3,2,2.3,3,2.9,3
2012/7/18 5:13,2.3,2,2.3,3,4.2,3
2012/7/18 5:14,2.3,2,2.3,3,4.2,3
2012/7/18 5:15,2.3,2,2.4,2,3.1,3
2012/7/18 5:16,2.3,2,2.3,2,2.9,3
2012/7/18 5:17,2.3,3,2.3,2,3.3,3
2012/7/18 5:18,2.3,3,2.3,2,3.7,3
2012/7/18 5:19,2.2,3,2.3,2,2.6,3
2012/7/18 5:20,2,3,2.2,2,2,2
2012/7/18 5:21,2,2,2,2,2,2
2012/7/18 5:22,1.9,2,2,2,2.5,3
2012/7/18 5:23,1.9,3,1.9,2,2.6,4
2012/7/18 5:24,1.9,3,1.9,2,2.9,3
2012/7/18 5:25,1.9,3,1.9,2,3.6,3
2012/7/18 5:26,1.9,3,2,2,2.5,4
2012/7/18 5:27,1.8,3,1.9,3,2.5,2
2012/7/18 5:28,1.7,3,1.8,3,3,3
2012/7/18 5:29,1.8,3,1.8,3,3.2,3
2012/7/18 5:30,1.9,3,1.9,3,2.6,2
2012/7/18 5:31,1.8,3,1.9,2,1.6,3
2012/7/18 5:32,1.9,3,1.9,3,3.3,2
2012/7/18 5:33,1.9,3,1.9,3,2.7,2
2012/7/18 5:34,1.8,3,1.8,3,2.5,4
2012/7/18 5:35,1.8,3,1.8,3,3.7,4
2012/7/18 5:36,1.8,3,1.8,3,3,3
2012/7/18 5:37,1.8,3,1.9,3,2.5,4
2012/7/18 5:38,1.8,3,1.8,3,1.5,2
2012/7/18 5:39,1.7,3,1.8,3,2.2,3
2012/7/18 5:40,1.6,3,1.7,3,2,2
2012/7/18 5:41,1.6,3,1.6,3,2.2,4
2012/7/18 5:42,1.6,3,1.6,3,2.6,3
2012/7/18 5:43,1.6,3,1.6,3,2.7,3
2012/7/18 5:44,1.6,3,1.6,3,2.6,3
2012/7/18 5:45,1.5,3,1.6,3,2.2,3
2012/7/18 5:46,1.4,3,1.5,3,2,3
2012/7/18 5:47,1.4,3,1.4,3,2.7,2
2012/7/18 5:48,1.6,3,1.6,3,3.3,3
2012/7/18 5:49,1.7,3,1.7,3,3.2,3
2012/7/18 5:50,1.7,3,1.7,3,2.7,3
2012/7/18 5:51,1.8,2,1.8,3,2.9,3
2012/7/18 5:52,1.8,2,1.9,2,3,3
2012/7/18 5:53,1.9,2,1.9,2,3.1,2
2012/7/18 5:54,1.9,2,1.9,2,2.9,3
2012/7/18 5:55,2,2,2,2,3.3,2
2012/7/18 5:56,2.1,3,2.1,2,3.6,4
2012/7/18 5:57,2.1,3,2.1,2,2.5,3
2012/7/18 5:58,2,3,2.1,2,2.9,4
2012/7/18 5:59,2,3,2,2,2.4,2
2012/7/18 6:00,2,3,2,2,3.3,2
2012/7/18 6:01,2.1,3,2.1,2,3.6,3
2012/7/18 6:02,2.1,3,2.1,2,3.5,3
2012/7/18 6:03,2.1,3,2.1,2,2.4,3
2012/7/18 6:04,2,3,2.1,2,3.5,3
2012/7/18 6:05,2,3,2.1,2,4.3,3
2012/7/18 6:06,2,3,2,3,2.7,4
2012/7/18 6:07,2,3,2.1,3,2.9,3
2012/7/18 6:08,2.1,3,2.1,3,3,4
2012/7/18 6:09,2.1,3,2.2,3,3.3,5
2012/7/18 6:10,2.1,3,2.1,3,4.2,3
2012/7/18 6:11,2.2,3,2.2,3,5.1,4
2012/7/18 6:12,2,3,2.1,3,3.6,5
2012/7/18 6:13,2,3,2.1,3,2.2,4
2012/7/18 6:14,2.1,3,2.1,3,4.3,3
2012/7/18 6:15,2.2,3,2.2,3,5,3
2012/7/18 6:16,2.4,3,2.4,3,4.2,3
2012/7/18 6:17,2.4,3,2.4,3,3.3,4
2012/7/18 6:18,2.5,3,2.5,3,3.9,3
2012/7/18 6:19,2.5,3,2.5,3,3.1,3
2012/7/18 6:20,2.6,3,2.6,3,2.7,3
2012/7/18 6:21,2.5,3,2.5,3,3.5,3
2012/7/18 6:22,2.5,3,2.5,3,3.1,3
2012/7/18 6:23,2.5,3,2.5,3,1.8,4
2012/7/18 6:24,2.4,3,2.5,3,2.2,3
2012/7/18 6:25,2.1,3,2.4,3,2.5,4
2012/7/18 6:26,2,3,2.1,3,3.3,3
2012/7/18 6:27,2,3,2,3,2.7,3
2012/7/18 6:28,1.9,3,2,3,2.7,4
2012/7/18 6:29,1.9,3,1.9,3,2.4,4
2012/7/18 6:30,1.9,3,1.9,3,3.1,3
2012/7/18 6:31,1.8,3,1.9,3,3,4
2012/7/18 6:32,1.8,3,1.8,3,2.2,4
2012/7/18 6:33,1.8,4,1.8,3,1.4,5
2012/7/18 6:34,1.7,4,1.8,3,1.1,5
2012/7/18 6:35,1.8,4,1.8,3,3.5,3
2012/7/18 6:36,1.8,4,1.8,3,3.5,3
2012/7/18 6:37,1.8,4,1.8,3,3.1,5
2012/7/18 6:38,1.8,4,1.8,3,3.5,4
2012/7/18 6:39,1.9,4,1.9,3,2.7,5
2012/7/18 6:40,1.8,4,1.9,3,2.5,5
2012/7/18 6:41,1.8,4,1.8,4,2.1,3
2012/7/18 6:42,1.8,4,1.8,4,2.4,3
2012/7/18 6:43,1.8,4,1.8,4,2.5,4
2012/7/18 6:44,2,4,2,4,4.7,3
2012/7/18 6:45,2.1,4,2.1,4,3.9,4
2012/7/18 6:46,2.1,4,2.1,4,3.6,4
2012/7/18 6:47,2.1,4,2.1,4,3.3,3
2012/7/18 6:48,2.1,4,2.1,4,3.6,3
2012/7/18 6:49,2.2,4,2.2,4,3.2,3
2012/7/18 6:50,2.2,4,2.2,4,3,5
2012/7/18 6:51,2.2,4,2.2,4,2.9,3
2012/7/18 6:52,2.3,4,2.3,4,3.7,4
2012/7/18 6:53,2.3,4,2.3,4,2.5,5
2012/7/18 6:54,2.2,4,2.3,4,2.6,5
2012/7/18 6:55,2,4,2.2,4,2.5,5
2012/7/18 6:56,2,4,2.1,4,3.5,5
2012/7/18 6:57,2,4,2,4,2.5,5
2012/7/18 6:58,1.9,4,2,4,3.2,5
2012/7/18 6:59,1.9,4,1.9,4,2.9,4
2012/7/18 7:00,1.8,4,1.9,4,2.1,4
2012/7/18 7:01,1.8,4,1.8,4,2.6,2
2012/7/18 7:02,1.7,4,1.8,4,2.4,2
2012/7/18 7:03,1.7,3,1.7,4,2.5,2
2012/7/18 7:04,1.7,3,1.7,4,4.1,4
2012/7/18 7:05,1.9,3,1.9,4,3.5,4
2012/7/18 7:06,1.9,3,1.9,4,4.2,4
2012/7/18 7:07,1.9,3,1.9,4,3.5,4
2012/7/18 7:08,2.1,3,2.1,3,5.4,3
2012/7/18 7:09,2.3,3,2.3,3,4.5,4
2012/7/18 7:10,2.4,3,2.4,3,3.7,3
2012/7/18 7:11,2.5,3,2.5,3,3.3,5
2012/7/18 7:12,2.6,3,2.6,3,4.1,4
2012/7/18 7:13,2.6,4,2.6,3,3.3,3
2012/7/18 7:14,2.7,4,2.7,4,3.8,4
2012/7/18 7:15,2.6,4,2.7,4,2.7,6
2012/7/18 7:16,2.5,4,2.6,4,2.7,5
2012/7/18 7:17,2.5,4,2.5,4,2.2,5
2012/7/18 7:18,2.2,4,2.5,4,1.5,3
2012/7/18 7:19,2,4,2.1,4,2.5,3
2012/7/18 7:20,2.1,4,2.1,4,3.5,4
2012/7/18 7:21,2,4,2.1,4,3.1,5
2012/7/18 7:22,1.9,4,2,4,2.9,5
2012/7/18 7:23,1.8,4,1.9,4,2.9,5
2012/7/18 7:24,1.8,4,1.8,4,2.6,3
2012/7/18 7:25,1.8,4,1.8,4,2.1,3
2012/7/18 7:26,1.8,4,1.8,4,2.9,3
2012/7/18 7:27,1.8,4,1.8,4,2.5,3
2012/7/18 7:28,1.9,4,1.9,4,3.5,5
2012/7/18 7:29,2,4,2,4,3.2,3
2012/7/18 7:30,1.9,4,2,4,3.3,3
2012/7/18 7:31,2,4,2,4,6.4,3
2012/7/18 7:32,2.2,4,2.2,4,6,3
2012/7/18 7:33,2.4,4,2.4,4,4.5,4
2012/7/18 7:34,2.4,4,2.4,4,3.5,5
2012/7/18 7:35,2.5,4,2.5,4,3,3
2012/7/18 7:36,2.5,4,2.5,4,3,5
2012/7/18 7:37,2.4,4,2.5,4,3.1,6
2012/7/18 7:38,2.4,4,2.4,4,2.4,5
2012/7/18 7:39,2.4,4,2.4,4,2.7,4
2012/7/18 7:40,2.4,4,2.4,4,3.8,4
2012/7/18 7:41,2.5,4,2.5,4,4.2,3
2012/7/18 7:42,2.3,4,2.4,4,4.2,3
2012/7/18 7:43,2.2,4,2.3,4,3.9,3
2012/7/18 7:44,2.2,4,2.2,4,3.7,5
2012/7/18 7:45,2.3,4,2.3,4,3.9,5
2012/7/18 7:46,2.4,4,2.4,4,4.2,5
2012/7/18 7:47,2.5,4,2.5,4,3,3
2012/7/18 7:48,2.5,3,2.5,4,2.5,1
2012/7/18 7:49,2.6,3,2.6,3,3.7,2
2012/7/18 7:50,2.6,3,2.6,3,4.4,3
2012/7/18 7:51,2.5,3,2.6,3,2.7,4
2012/7/18 7:52,2.5,3,2.5,3,3.2,2
2012/7/18 7:53,2.4,4,2.5,3,3.1,4
2012/7/18 7:54,2.4,3,2.5,3,3,2
2012/7/18 7:55,2.3,3,2.4,3,3.7,3
2012/7/18 7:56,2.3,3,2.3,3,4.4,3
2012/7/18 7:57,2.4,3,2.4,3,4.7,3
2012/7/18 7:58,2.7,3,2.7,3,6.2,4
2012/7/18 7:59,2.8,3,2.8,3,5.7,3
2012/7/18 8:00,2.7,3,2.8,3,3.2,3
2012/7/18 8:01,2.7,3,2.7,3,2.7,3
2012/7/18 8:02,2.8,3,2.8,3,5.1,3
2012/7/18 8:03,3,3,3,3,7.1,4
2012/7/18 8:04,3.2,3,3.2,3,5.2,5
2012/7/18 8:05,3.2,4,3.2,3,3.8,6
2012/7/18 8:06,3.1,4,3.2,3,3.7,5
2012/7/18 8:07,3.1,4,3.1,3,3.9,5
2012/7/18 8:08,2.9,4,3.1,3,4.1,5
2012/7/18 8:09,2.8,4,2.9,3,3.9,5
2012/7/18 8:10,2.8,4,2.8,3,3.5,3
2012/7/18 8:11,2.7,4,2.8,3,3.5,3
2012/7/18 8:12,2.7,4,2.7,3,3.2,3
2012/7/18 8:13,2.5,4,2.6,3,3.6,5
2012/7/18 8:14,2.3,4,2.4,3,3.8,4
2012/7/18 8:15,2.3,4,2.3,4,3.2,4
2012/7/18 8:16,2.2,4,2.3,4,1.8,4
2012/7/18 8:17,2,4,2.2,4,1.8,6
2012/7/18 8:18,2,4,2,4,3.9,4
2012/7/18 8:19,2,4,2,4,3.8,4
2012/7/18 8:20,2,4,2,4,3,3
2012/7/18 8:21,2,4,2,4,2.7,6
2012/7/18 8:22,2,4,2,4,2.5,6
2012/7/18 8:23,2,4,2,4,3.2,6
2012/7/18 8:24,1.9,5,2,4,2.5,7
2012/7/18 8:25,1.9,5,1.9,4,3.8,5
2012/7/18 8:26,2,5,2,4,4.2,4
2012/7/18 8:27,2.1,5,2.1,5,3.6,4
2012/7/18 8:28,2.3,5,2.3,5,4.9,4
2012/7/18 8:29,2.4,5,2.4,5,4.3,4
2012/7/18 8:30,2.4,5,2.4,5,2.5,4
2012/7/18 8:31,2.4,5,2.4,5,3.1,5
2012/7/18 8:32,2.4,5,2.4,5,3.1,5
2012/7/18 8:33,2.4,5,2.4,5,4.2,6
2012/7/18 8:34,2.6,5,2.6,5,4.2,4
2012/7/18 8:35,2.7,5,2.7,5,3.9,5
2012/7/18 8:36,2.7,4,2.7,5,4.8,3
2012/7/18 8:37,2.7,5,2.7,5,3.1,5
2012/7/18 8:38,2.5,5,2.6,5,2.7,5
2012/7/18 8:39,2.4,4,2.5,5,3.9,3
2012/7/18 8:40,2.5,4,2.5,5,4.5,3
2012/7/18 8:41,2.6,4,2.6,5,5.5,4
2012/7/18 8:42,2.8,4,2.8,4,4.8,3
2012/7/18 8:43,2.8,4,2.8,4,5,3
2012/7/18 8:44,2.8,4,2.8,4,4.1,3
2012/7/18 8:45,2.8,4,2.8,4,3.6,5
2012/7/18 8:46,2.8,4,2.8,4,4.1,5
2012/7/18 8:47,2.8,4,2.8,4,3.3,5
2012/7/18 8:48,2.9,4,2.9,4,4.5,6
2012/7/18 8:49,3.1,4,3.1,4,5.2,5
2012/7/18 8:50,3.1,4,3.1,4,5.1,6
2012/7/18 8:51,3.1,5,3.1,4,4.8,6
2012/7/18 8:52,2.9,5,3,4,3,6
2012/7/18 8:53,2.8,5,2.9,4,3.8,4
2012/7/18 8:54,2.8,5,2.8,4,3.7,4
2012/7/18 8:55,2.7,5,2.8,4,4.3,6
2012/7/18 8:56,2.8,5,2.8,4,4.7,6
2012/7/18 8:57,3,5,3,4,6.3,6
2012/7/18 8:58,3,6,3,4,4.8,6
2012/7/18 8:59,2.8,6,2.9,4,3.7,6
2012/7/18 9:00,2.8,6,2.8,4,3.5,6
2012/7/18 9:01,2.8,6,2.8,5,4.7,7
2012/7/18 9:02,2.9,6,2.9,5,4.7,6
2012/7/18 9:03,2.9,6,3,5,4.4,6
2012/7/18 9:04,2.8,6,2.9,5,3.3,6
2012/7/18 9:05,2.8,6,2.8,5,3,4
2012/7/18 9:06,2.6,6,2.8,5,3.1,5
2012/7/18 9:07,2.5,6,2.6,5,4.4,4
2012/7/18 9:08,2.5,6,2.5,6,4.2,4
2012/7/18 9:09,2.6,5,2.6,6,6.1,3
2012/7/18 9:10,2.6,5,2.6,6,4.9,6
2012/7/18 9:11,2.5,5,2.6,6,3.9,6
2012/7/18 9:12,2.6,5,2.6,6,5,4
2012/7/18 9:13,2.6,5,2.6,6,4.5,4
2012/7/18 9:14,2.7,5,2.7,6,4.4,4
2012/7/18 9:15,2.8,4,2.8,6,4.3,4
2012/7/18 9:16,2.8,4,2.8,4,3.2,4
2012/7/18 9:17,2.7,4,2.8,4,3.2,4
2012/7/18 9:18,2.8,4,2.8,4,5,3
2012/7/18 9:19,2.8,4,2.8,4,4.5,2
2012/7/18 9:20,2.8,4,2.8,4,4.4,5
2012/7/18 9:21,2.8,4,2.8,4,4.9,5
2012/7/18 9:22,2.6,4,2.8,4,4.2,4
2012/7/18 9:23,2.5,4,2.6,4,3.6,5
2012/7/18 9:24,2.5,4,2.5,4,4.1,6
2012/7/18 9:25,2.6,5,2.6,4,5.6,5
2012/7/18 9:26,2.7,5,2.7,4,5.2,5
2012/7/18 9:27,2.9,5,2.9,5,4.9,5
2012/7/18 9:28,2.9,5,2.9,5,3.8,5
2012/7/18 9:29,3,5,3,5,5.5,5
2012/7/18 9:30,3,5,3,5,4.8,3
2012/7/18 9:31,3.1,5,3.1,5,5,5
2012/7/18 9:32,3.2,5,3.2,5,5.5,6
2012/7/18 9:33,3.4,5,3.4,5,5.2,6
2012/7/18 9:34,3.4,5,3.4,5,4.1,4
2012/7/18 9:35,3.3,5,3.4,5,4.8,5
2012/7/18 9:36,3.3,5,3.3,5,4.5,7
2012/7/18 9:37,3.3,6,3.3,5,5.4,8
2012/7/18 9:38,3.3,6,3.3,5,4.9,6
2012/7/18 9:39,3.2,6,3.3,5,5.1,6
2012/7/18 9:40,3.1,6,3.2,5,5.2,6
2012/7/18 9:41,3.2,6,3.2,5,6,5
2012/7/18 9:42,3.2,6,3.3,5,4.8,7
2012/7/18 9:43,3,6,3.2,5,3.1,8
2012/7/18 9:44,3,6,3,5,5.5,7
2012/7/18 9:45,3.1,7,3.1,5,6.9,8
2012/7/18 9:46,3.1,7,3.1,5,4.4,6
2012/7/18 9:47,3,7,3.1,6,3.1,8
2012/7/18 9:48,3,6,3.1,6,5.1,6
2012/7/18 9:49,2.9,6,3,6,4.4,5
2012/7/18 9:50,3,6,3.1,6,4.2,5
2012/7/18 9:51,2.7,6,3,6,2,8
2012/7/18 9:52,2.5,6,2.6,6,2.2,5
2012/7/18 9:53,2.5,6,2.5,6,2.7,4
2012/7/18 9:54,2.3,6,2.5,6,5.1,7
2012/7/18 9:55,2.2,6,2.3,7,3.8,6
2012/7/18 9:56,2.2,6,2.2,7,4.1,6
2012/7/18 9:57,2.1,6,2.2,7,3.2,6
2012/7/18 9:58,1.8,6,2.1,6,2.2,6
2012/7/18 9:59,1.7,6,1.8,6,4.7,6
2012/7/18 10:00,1.8,6,1.8,6,4.4,7
2012/7/18 10:01,1.9,6,1.9,6,3.8,5
2012/7/18 10:02,1.9,6,1.9,6,3.2,6
2012/7/18 10:03,2,6,2,6,3.7,6
2012/7/18 10:04,1.9,6,2,6,3.5,6
2012/7/18 10:05,1.8,6,1.9,6,1.6,6
2012/7/18 10:06,1.7,6,1.8,6,3.2,8
2012/7/18 10:07,1.8,7,1.8,6,3.7,9
2012/7/18 10:08,1.8,7,1.8,6,2.2,6
2012/7/18 10:09,1.9,6,1.9,6,3.2,5
2012/7/18 10:10,1.8,6,1.9,6,2.9,7
2012/7/18 10:11,1.8,6,1.8,6,3.7,5
2012/7/18 10:12,2,6,2,6,6.1,5
2012/7/18 10:13,2.2,6,2.2,6,4.9,7
2012/7/18 10:14,2.2,6,2.2,6,3.7,6
2012/7/18 10:15,2.3,6,2.3,6,3.8,5
2012/7/18 10:16,2.4,6,2.4,6,3.7,5
2012/7/18 10:17,2.4,6,2.4,6,3.8,6
2012/7/18 10:18,2.4,6,2.4,6,2.1,5
2012/7/18 10:19,2.3,6,2.4,6,2.4,5
2012/7/18 10:20,2.3,6,2.3,6,2.9,5
2012/7/18 10:21,2.2,6,2.3,6,2.1,4
2012/7/18 10:22,1.9,6,2.2,6,1.9,3
2012/7/18 10:23,1.7,6,1.9,6,3,6
2012/7/18 10:24,1.8,6,1.8,6,4.5,8
2012/7/18 10:25,1.7,6,1.8,6,5.1,8
2012/7/18 10:26,1.7,7,1.8,6,4.4,8
2012/7/18 10:41,2.9,9,2.9,9,2.9,8
2012/7/18 10:42,2,8,2.4,9,3.3,8
2012/7/18 10:43,2,7,2,9,3,7
2012/7/18 10:44,2.1,7,2.2,9,3.9,8
2012/7/18 10:45,2.2,7,2.2,9,4.7,8
2012/7/18 10:46,2.3,7,2.3,9,3.9,8
2012/7/18 10:47,2.2,7,2.3,9,2.1,7
2012/7/18 10:48,2.2,8,2.2,9,3.9,9
2012/7/18 10:49,2.3,8,2.3,9,4.4,8
2012/7/18 10:50,2.5,8,2.5,9,5.6,7
2012/7/18 10:51,2.5,8,2.5,8,4.2,8
2012/7/18 10:52,2.6,8,2.6,8,5,8
2012/7/18 10:53,2.7,8,2.7,8,4.9,8
2012/7/18 10:54,2.8,8,2.8,8,5,8
2012/7/18 10:55,2.6,8,2.8,8,2.5,8
2012/7/18 10:56,2.6,8,2.6,8,5.1,8
2012/7/18 10:57,2.7,8,2.7,8,3.8,7
2012/7/18 10:58,2.7,8,2.8,8,3.9,8
2012/7/18 10:59,2.5,8,2.6,8,2.5,7
2012/7/18 11:00,2.3,7,2.5,8,2.5,7
2012/7/18 11:01,2.2,7,2.3,8,3.8,6
2012/7/18 11:02,2.2,7,2.2,8,5.6,5
2012/7/18 11:03,2.1,6,2.3,8,3.8,6
2012/7/18 11:04,2,6,2.1,8,1.8,9
2012/7/18 11:05,2,6,2,8,3,7
2012/7/18 11:06,1.8,6,2,8,1.8,7
2012/7/18 11:07,1.7,6,1.8,8,3.5,9
2012/7/18 11:08,1.7,6,1.7,8,3,8
2012/7/18 11:09,1.8,6,1.8,7,4.7,9
2012/7/18 11:10,1.9,7,1.9,7,4.7,9
2012/7/18 11:11,2,7,2,7,3.2,9
2012/7/18 11:12,1.8,8,2,7,3,6
2012/7/18 11:13,1.9,8,1.9,6,3.7,7
2012/7/18 11:14,2.1,8,2.1,8,3.5,7
2012/7/18 11:15,2.1,8,2.1,8,2.7,7
2012/7/18 11:16,2.2,8,2.2,8,3.1,9
2012/7/18 11:17,2.2,8,2.2,8,3.3,7
2012/7/18 11:18,2.2,8,2.2,8,3,5
2012/7/18 11:19,2.4,8,2.4,8,5.8,8
2012/7/18 11:20,2.3,8,2.3,8,5.1,9
2012/7/18 11:21,2.4,8,2.4,8,5.8,8
2012/7/18 11:22,2.6,8,2.6,8,5.4,8
2012/7/18 11:23,2.5,8,2.6,8,4.3,8
2012/7/18 11:24,2.5,8,2.5,8,3.7,8
2012/7/18 11:25,2.4,8,2.4,8,2.2,6
2012/7/18 11:26,2.3,8,2.4,8,2.4,9
2012/7/18 11:27,2.2,8,2.3,8,4.3,8
2012/7/18 11:28,2.4,8,2.4,8,5.1,9
2012/7/18 11:29,2.4,8,2.4,8,5.8,9
2012/7/18 11:30,2.3,8,2.4,8,3.9,7
2012/7/18 11:31,2.3,8,2.3,8,4.2,8
2012/7/18 11:32,2.2,8,2.3,8,4.2,8
2012/7/18 11:33,2.1,8,2.2,8,3.1,9
2012/7/18 11:34,2.1,8,2.1,8,3.6,6
2012/7/18 11:35,2.3,8,2.3,8,5.1,4
2012/7/18 11:36,2.6,8,2.6,8,5.1,5
2012/7/18 11:37,2.7,7,2.7,7,3.9,7
2012/7/18 11:38,2.6,7,2.7,7,3.2,6
2012/7/18 11:39,2.5,7,2.6,7,4.1,5
2012/7/18 11:40,2.5,6,2.6,7,3.6,5
2012/7/18 11:41,2.5,6,2.6,7,3.7,4
2012/7/18 11:42,2.4,5,2.5,7,3.8,6
2012/7/18 11:43,2.4,5,2.4,7,2.9,5
2012/7/18 11:44,2.5,5,2.6,7,3.9,7
2012/7/18 11:45,2.4,5,2.5,7,3.5,6
2012/7/18 11:46,2.3,6,2.4,7,3.3,7
2012/7/18 11:47,2.2,6,2.3,7,3,5
2012/7/18 11:48,2.3,5,2.3,7,4.2,6
2012/7/18 11:49,2.1,6,2.3,6,1.9,4
2012/7/18 11:50,2,6,2.1,6,1.9,6
2012/7/18 11:51,1.9,6,2,5,1.8,9
2012/7/18 11:52,1.8,7,1.9,5,3.5,9
2012/7/18 11:53,1.8,7,1.8,5,3.6,8
2012/7/18 11:54,1.9,7,1.9,5,5.2,8
2012/7/18 11:55,2,7,2,5,4.4,7
2012/7/18 11:56,2.2,7,2.2,6,5.8,8
2012/7/18 11:57,2.4,8,2.4,8,6.5,8
2012/7/18 11:58,2.4,8,2.4,8,5.1,8
2012/7/18 11:59,2.7,8,2.7,8,5.1,7
2012/7/18 12:00,2.9,8,2.9,8,5,7
2012/7/18 12:01,3.1,8,3.1,8,4.8,7
2012/7/18 12:02,3.3,8,3.3,8,5.1,6
2012/7/18 12:03,3.4,8,3.4,8,4.2,8
2012/7/18 12:04,3.4,8,3.4,8,6.1,8